Regional Weather Roundup
Issued by NWS

Home | Current Version | Previous Version | Text Only | Print | Product List | Glossary Off
Versions: 1 2 3 4 5 6 7 8 9 10 11 12 13 14 15 16 17 18 19 20 21 22 23 24 25 26 27 28 29 30 31 32 33 34 35 36 37 38 39 40 41 42 43 44 45 46 47 48 49 50

000
ASUS43 KMPX 180110
RWRMN
WEATHER ROUNDUP FOR MINNESOTA
NATIONAL WEATHER SERVICE TWIN CITIES/CHANHASSEN MN
700 PM CST SAT FEB 17 2018


NOTE: "FAIR" INDICATES FEW OR NO CLOUDS BELOW 12,000 FEET WITH NO
SIGNIFICANT WEATHER AND/OR OBSTRUCTIONS TO VISIBILITY. N/A MEANS
CURRENT SKY AND/OR WEATHER CONDITIONS ARE NOT AVAILABLE.

MNZ060>063-068>070-180200-
   Twin Cities Metro

CITY           SKY/WX    TMP DP  RH WIND       PRES   REMARKS
TWIN CITIES    FAIR      29  13  51 NW13G22   30.00R WCI  19
ST PAUL        FAIR      30  13  49 NW12      30.01R WCI  20
CRYSTAL        FAIR      28  11  48 NW12      29.99R WCI  18
BLAINE         CLEAR    N/A N/A N/A W14       29.97R
LAKEVILLE      FAIR      25  12  58 W7        30.00R WCI  17
EDEN PRAIRIE   FAIR      29  10  45 NW10      29.98R WCI  20
SOUTH ST PAUL  FAIR      31  11  44 W9        29.99R WCI  23
LAKE ELMO      FAIR      30  12  47 NW9       29.99R WCI  22
$$
MNZ001>005-007-008-013>017-022>024-027-028-180200-
   Northwest Minnesota

CITY           SKY/WX    TMP DP  RH WIND       PRES   REMARKS
BEMIDJI        FAIR      11   1  66 W6        29.92R WCI   1
HALLOCK        FAIR      12   1  62 NW10      29.95R WCI  -1
WARROAD        FAIR      12   1  62 NW9       29.90R WCI   0
THIEF RVR FALL MOCLDY    15   9  76 W10       29.95R WCI   2
CROOKSTON      FAIR      16  10  79 W8        29.98R WCI   5
FOSSTON        MOCLDY    12   3  67 SW8       29.95R WCI   1
DETROIT LAKES  FAIR      16   7  67 W7        29.98R WCI   6
MOORHEAD       FAIR      19   7  58 CALM      30.01R
PARK RAPIDS    FAIR      12   3  67 W10       29.94R WCI  -1
MAHNOMEN       FAIR      12   5  73 SW9       29.96R WCI   0
$$
MNZ006-009>011-018-025>026-180200-
   North Central Minnesota

CITY           SKY/WX    TMP DP  RH WIND       PRES   REMARKS
BAUDETTE       CLOUDY    14   4  64 W8        29.86R WCI   3
FLAG ISLAND    FAIR       9  -6  52 NW18G25   29.90R WCI -10
INTL FALLS     FAIR      14   0  53 W12G18    29.86R WCI   0
WASKISH        FAIR      10   3  72 SW10      29.89S WCI  -3
BIG FORK       FAIR      14   3  62 SW7       29.90R WCI   4
LONGVILLE      FAIR      16   3  57 W5        29.94R WCI   9
GRAND RAPIDS   FAIR      16   5  62 NW8       29.93R WCI   5
CRANE LAKE     FAIR      16   0  48 W3        29.87R
ORR            FAIR      14   1  57 W9G16     29.84R WCI   2
COOK           CLOUDY    16   7  67 W10       29.87R WCI   3
WALKER         FAIR      15   3  59 W6        29.93R WCI   6
$$
MNZ012-019>021-037-180200-
   Northeast Minnesota

CITY           SKY/WX    TMP DP  RH WIND       PRES   REMARKS
DULUTH         FAIR      22   7  52 W15       29.87R WCI   9
ELY            FAIR      16   3  57 W13G23    29.83R WCI   2
HIBBING        FAIR      16   3  56 W10       29.88R WCI   4
EVELETH        FAIR     N/A N/A N/A W7        29.88R
DULUTH HARBOR  FAIR      25  14  63 W12       29.93R WCI  14
TWO HARBORS    FAIR      25  10  54 W8        29.85R WCI  16
GRAND MARAIS     N/A     25   9  50 W9        29.84  WCI  15
G MARAIS ARPRT FAIR      16   1  53 SW7       29.76R WCI   6
$$
MNZ029>031-032-039>041-046>048-054>057-064-180200-
   West Central Minnesota

CITY           SKY/WX    TMP DP  RH WIND       PRES   REMARKS
FERGUS FALLS   FAIR      18   7  62 N6        30.01R WCI   9
WHEATON        CLEAR     21   7  53 NW5       30.04R WCI  15
MORRIS         CLEAR     19   3  49 NW5       30.01R WCI  13
ALEXANDRIA     FAIR      17   5  59 NW7       30.00R WCI   8
ELBOW LAKE     FAIR      19   7  61 CALM      30.01R
WADENA         FAIR      16   3  57 W6        29.97R WCI   7
GLENWOOD       FAIR      18   7  62 NW8       30.00R WCI   7
APPLETON       CLEAR     21   5  49 CALM      30.03R
BENSON         CLEAR     18   3  53 N3        30.04R
MADISON        CLEAR     27  10  50 NW5       30.05R WCI  21
WILLMAR        FAIR      21   7  53 NW3       30.05R
$$
MNZ033>034-036-042>043-049>051-058-059-180200-
   Central Minnesota

CITY           SKY/WX    TMP DP  RH WIND       PRES   REMARKS
ST CLOUD       FAIR      23   7  50 W10       29.99R WCI  12
SAUK CENTRE    FAIR      20   6  54 W8        30.00R WCI  10
PAYNESVILLE    FAIR      21   7  53 CALM      30.02R
AITKIN         FAIR      18   3  53 W5        29.93R WCI  11
PINE RIVER     FAIR      16   3  57 CALM      29.98R
BRAINERD       FAIR      20   3  48 W9        29.96R WCI   9
STAPLES        FAIR      10   1  67 W7        29.98R WCI   0
LONG PRAIRIE   FAIR      19   5  53 W10       29.98R WCI   8
LITTLE FALLS   FAIR      19  -4  35 W3        29.99
LITCHFIELD     FAIR      25   9  50 NW6       30.01R WCI  18
BUFFALO        FAIR      26   8  45 W9        30.02R WCI  17
MAPLE LAKE     FAIR      26  10  51 W8        30.02R WCI  17
HUTCHINSON     FAIR      26  11  53 NW8       30.02R WCI  18
$$
MNZ037-044-045-052-053-180200-
   East Central Minnesota

CITY           SKY/WX    TMP DP  RH WIND       PRES   REMARKS
PRINCETON      FAIR      25  10  54 W8        29.98R WCI  16
MORA           FAIR      25  10  54 W8        29.98R WCI  16
CAMBRIDGE      FAIR      27  12  54 W13G18    29.98R WCI  16
RUSH CITY      FAIR      24  10  54 W9        29.97R WCI  14
MOOSE LAKE     FAIR      23   9  54 W13       29.92R WCI  11
HINCKLEY       FAIR      25  12  58 W9        29.96R WCI  15
CLOQUET        FAIR      21   5  49 W9        29.89R WCI  11
MCGREGOR       FAIR      21   9  58 W8        29.94R WCI  12
$$
MNZ071>073-080-081-089-090-097-098-180200-
   Southwest Minnesota

CITY           SKY/WX    TMP DP  RH WIND       PRES   REMARKS
MONTEVIDEO     CLEAR     25   7  46 N6        30.04R WCI  18
GRANITE FALLS  CLEAR     24  13  60 W7        30.05R WCI  16
CANBY          CLEAR     27  15  60 W5        30.05R WCI  21
MARSHALL       PTCLDY    27  17  66 W10       30.04R WCI  17
REDWOOD FALLS  CLEAR     27  12  53 NW8       30.03R WCI  19
OLIVIA         CLEAR     27  10  50 NW6       30.03R WCI  20
PIPESTONE      CLEAR     27  19  74 W9        30.03R WCI  17
WINDOM         CLEAR     23   7  50 W6        30.04R WCI  16
WORTHINGTON    CLEAR     21  17  84 W12       30.06R WCI   9
JACKSON        CLEAR     27  18  69 W9        30.04R WCI  17
TRACY          CLEAR     30  21  69 W5        30.03R WCI  25
SLAYTON        CLEAR     27  21  77 W10       30.04R WCI  17
$$
MNZ065>067-074>077-082>085-091>093-180200-
   South Central Minnesota

CITY           SKY/WX    TMP DP  RH WIND       PRES   REMARKS
MANKATO        FAIR      29  17  61 W8        30.03R WCI  21
NEW ULM        CLEAR     25  16  68 W8        30.03R WCI  16
ST JAMES       CLEAR     23  16  74 SW7       30.06R WCI  15
FAIRMONT       CLEAR     26  20  77 W9        30.05R WCI  17
GLENCOE        FAIR      29  15  55 NW9       30.01R WCI  20
FARIBAULT      FAIR      27  14  59 W8        30.01R WCI  18
OWATONNA       FAIR      21  14  73 W7        30.01R WCI  13
WASECA         FAIR      21  18  86 W8        30.04R WCI  12
ALBERT LEA     FAIR      28  21  74 SW6       30.02R WCI  22
$$
MNZ078>079-086>088-094>096-180200-
   Southeast Minnesota

CITY           SKY/WX    TMP DP  RH WIND       PRES   REMARKS
ROCHESTER      FAIR      24  20  84 SW14      29.99R WCI  12
RED WING       FAIR      28  16  59 NW6       29.98R WCI  22
STANTON        FAIR      29  15  55 W7        29.99R WCI  22
DODGE CENTER   FAIR      19  18  93 W8        30.00R WCI   9
WINONA         FAIR      30  25  80 SW7       29.99R WCI  23
AUSTIN         FAIR      25  18  74 SW6       30.02R WCI  18
PRESTON        FAIR      25  21  84 SW10      30.01R WCI  15
$$
ABBREVIATIONS USED IN REMARKS
   TC - TEMPERATURES IN CELSIUS
  WCI - WIND CHILL INDEX
   HX - HEAT INDEX
  VSB - VISIBILITY
$$




USA.gov is the U.S. government's official web portal to all federal, state and local government web resources and services.